Simultaneous Nadir Overpasses (SNOs) Predictions

Prediction of SNOs between GOES-15 and TERRA Satellite Orbit:

Table of predicted SNOs for the next 14.0 days since TLE Epoch: 3/16/2017
Index Date Time (GOES-15) GOES-15 Lat,Lon TERRA Lat,Lon Distance(km) Time Diff (sec)
1 03/16/2017 19:27:38 0.01,-134.59 -0.11,-134.02 64.28 80
2 03/18/2017 19:15:27 0.01,-134.49 -0.75,-131.07 389.82 80
3 03/19/2017 07:34:11 -0.01,-134.44 -0.38,-136.26 206.13 80
4 03/21/2017 07:24:39 -0.01,-134.33 0.20,-133.29 118.63 80
5 03/21/2017 19:43:15 0.00,-134.33 0.87,-138.45 468.01 80
6 03/23/2017 07:12:28 -0.01,-134.22 0.84,-130.33 442.81 80
7 03/23/2017 19:31:03 0.00,-134.22 0.29,-135.48 144.03 80
8 03/25/2017 19:21:32 0.01,-134.10 -0.36,-132.53 179.52 80
9 03/26/2017 07:40:16 -0.00,-134.04 -0.76,-137.72 417.23 80
10 03/28/2017 07:28:04 -0.01,-133.92 -0.16,-134.75 94.35 80
11 03/30/2017 07:18:32 -0.01,-133.79 0.43,-131.78 227.82 80




NCC Satellite Simultaneous Nadir Overpasses (SNOs) Prediction Service
